Location: Unspecified
(40.7945°N, 0.0000°E)
Time: 03:17:48
(UTC+00:00)

Altair - Pass Details

Date: 21 January 2021
Orbit: 1501 x 1682 km, 47.2° (Epoch: 01 March)

Event Time Altitude Azimuth Distance (km) Brightness Sun altitude
Rises 12:28:50 0° 298° (WNW) 4,934 9.9 29.3°
Reaches altitude 10° 12:32:06 10° 294° (WNW) 3,935 9.5 29.2°
Maximum altitude 12:41:48 54° 221° (SW) 1,928 9.2 29.0°
Drops below altitude 10° 12:51:10 10° 147° (SSE) 3,807 10.4 28.7°
Sets 12:54:18 0° 143° (SE) 4,765 10.6 28.6°
